Cloud_Cover
36 95 98 100 55 54 96 100 100 100 100 100 100 100 100 100 100 100 100 100 100 100 100 100 100 100 100 100 72 44 100 79 98 100 100 100 98 33 5 5 4 2 0
100 100 100 78 100 100 100 100 100 100 100 100 84 100 100 100 100 100 100 100 100 100 100 100 100 100 95 96 100 97 61 95 100 100 57 99 34 98 99 44 18 30 82
100 95 100 100 100 96 100 100 100 100 100 72 47 100 100 100 100 100 100 100 100 100 100 96 100 100 98 69 68 100 100 84 59 94 100 100 99 85 11 29 8 5 2
100 100 100 70 87 100 100 100 100 100 100 100 100 100 100 100 100 99 100 100 100 100 100 100 100 75 100 100 100 100 100 100 81 100 100 100 100 100 100 98 9 2 5
100 100 100 85 67 83 12 79 90 100 100 100 100 100 100 100 100 100 100 99 100 98 100 100 100 100 99 100 100 100 100 100 100 100 100 99 94 64 100 100 84 31 73
58 100 100 100 100 100 84 51 96 100 100 100 100 100 100 90 98 93 96 88 100 100 100 100 100 100 88 100 100 100 100 100 100 100 100 100 100 100 100 58 1 0 0
69 66 100 100 100 100 100 100 86 66 97 56 100 100 100 100 100 100 100 100 100 100 100 100 100 100 100 100 100 100 100 100 100 100 100 100 100 89 95 59 5 5 4
86 100 72 3 58 100 100 18 11 77 20 6 84 97 100 100 100 100 100 100 100 100 100 100 98 100 100 100 100 100 100 100 100 100 100 100 100 100 96 100 25 5 6
5 5 83 63 64 6 56 30 4 44 94 99 75 9 5 38 97 100 100 100 100 100 100 100 100 100 100 100 100 100 100 100 100 100 100 100 100 100 100 90 5 1 6
1 4 5 5 24 51 20 39 43 10 5 34 42 67 51 54 73 99 90 95 82 94 100 100 100 100 100 100 100 100 100 100 100 100 100 100 100 100 100 100 7 74 31
5 5 5 5 13 61 97 5 12 16 14 6 5 5 5 68 100 96 93 94 100 100 100 100 100 100 100 100 100 100 100 100 100 100 100 100 98 100 99 97 100 57 33
5 4 5 0 3 96 23 15 5 4 5 56 86 12 39 80 100 100 99 100 99 91 100 100 100 100 100 100 100 100 100 100 100 100 100 100 100 100 100 100 55 94 97
0 2 5 5 1 0 0 5 4 3 14 89 97 55 68 100 100 100 100 100 100 100 100 99 98 100 100 100 100 100 100 100 100 100 100 100 100 100 100 100 100 100 94
0 1 32 2 0 2 5 0 91 100 96 54 39 72 100 99 100 100 100 100 100 100 100 100 100 100 100 100 100 100 100 100 100 100 100 100 100 100 100 100 100 61 33
100 39 2 5 5 0 0 0 96 72 31 14 78 100 100 100 100 100 100 100 100 100 99 100 100 100 100 100 100 100 100 100 100 100 100 100 100 100 100 71 73 98 40
5 5 0 0 0 0 0 0 14 5 44 100 100 100 100 100 100 100 100 98 100 100 100 100 100 100 99 100 100 98 100 100 100 100 100 100 100 100 100 100 93 33 8
14 6 0 0 0 0 1 1 0 9 36 100 100 100 100 100 100 100 100 100 100 100 100 100 100 95 100 99 92 100 100 100 100 100 97 100 100 100 100 93 82 44 70
57 17 4 4 97 4 1 1 4 32 94 100 100 100 100 100 100 100 100 100 100 100 100 100 100 100 80 42 89 100 63 100 100 100 100 100 100 100 90 20 17 65 16
100 68 5 6 100 35 5 25 99 100 97 100 100 100 100 100 100 100 100 100 100 100 100 79 76 82 11 37 99 95 98 100 100 100 100 100 100 66 45 34 16 5 7
53 86 6 61 98 13 8 98 78 100 100 100 100 100 100 100 100 100 100 100 100 100 70 92 61 59 80 100 96 53 62 58 100 100 100 100 60 58 42 8 5 5 5
43 98 100 72 98 24 74 93 100 100 100 100 100 100 100 100 100 100 100 75 100 96 31 46 58 100 97 32 18 94 98 67 73 69 64 60 56 11 5 5 5 5 13
10 13 90 100 100 100 100 58 97 100 100 100 100 100 100 100 100 100 99 99 96 6 72 100 100 99 95 50 54 100 95 39 5 16 11 5 9 8 18 5 5 5 94
5 6 99 100 100 100 100 100 99 100 100 98 98 100 65 100 100 100 100 23 76 98 96 100 100 100 100 98 98 92 97 92 50 5 5 5 8 17 12 11 37 70 50
5 7 7 77 97 99 96 100 100 100 97 100 100 84 100 99 100 100 94 100 100 100 100 100 100 100 100 100 100 100 99 24 43 16 6 9 55 66 17 36 65 41 78
7 6 21 26 50 53 59 83 92 100 94 100 100 100 91 85 82 96 100 100 100 100 100 100 100 100 100 100 100 100 99 47 42 62 59 96 99 86 82 66 81 87 91
40 5 49 29 37 96 97 100 100 100 100 100 100 100 100 100 100 100 100 100 100 100 100 100 100 100 100 100 100 100 100 71 79 97 100 97 84 72 59 100 100 91 90